Location: Zapote
(9.9191°N, 84.0597°W)
Time: 10:02:25
(UTC-06:00)

Courier 1B Rocket - Pass Details

Date: 05 March 2021
Orbit: 920 x 1202 km, 28.2° (Epoch: 12 April)

Event Time Altitude Azimuth Distance (km) Brightness Sun altitude
Rises 21:14:58 0° 288° (WNW) 4,091 8.8 -52.0°
Reaches altitude 10° 21:17:56 10° 283° (WNW) 3,126 8.1 -52.7°
Enters shadow 21:19:10 15° 280° (W) 2,743 7.7 -53.0°
